Time,TemperatureF,DewpointF,PressureIn,WindDirection,WindDirectionDegrees,WindSpeedMPH,WindSpeedGustMPH,Humidity,HourlyPrecipIn,Conditions,Clouds,dailyrainin,SolarRadiationWatts/m^2,SoftwareType,DateUTC
2013-08-31 00:04:00,79.0,67.1,29.93,NW,315,0.0,0.0,67,0.00,,,0.00,0,Wunderground v.1.15,2013-08-31 07:04:00,
2013-08-31 00:09:00,79.0,66.7,29.93,NW,315,0.0,0.0,66,0.00,,,0.00,0,Wunderground v.1.15,2013-08-31 07:09:00,
2013-08-31 00:15:00,78.6,66.3,29.93,NW,315,0.0,0.0,66,0.00,,,0.00,0,Wunderground v.1.15,2013-08-31 07:15:00,
2013-08-31 00:20:00,78.3,66.4,29.93,NW,315,0.0,0.0,67,0.00,,,0.00,0,Wunderground v.1.15,2013-08-31 07:20:00,
2013-08-31 00:26:00,78.3,66.4,29.93,NW,319,0.0,0.0,67,0.00,,,0.00,0,Wunderground v.1.15,2013-08-31 07:26:00,
2013-08-31 00:31:00,78.4,66.5,29.93,NW,319,0.0,0.0,67,0.00,,,0.00,0,Wunderground v.1.15,2013-08-31 07:31:00,
2013-08-31 00:37:00,77.6,66.2,29.93,NW,319,0.0,0.0,68,0.00,,,0.00,0,Wunderground v.1.15,2013-08-31 07:37:00,
2013-08-31 00:42:00,77.5,66.5,29.93,North,350,0.0,0.0,69,0.00,,,0.00,0,Wunderground v.1.15,2013-08-31 07:42:00,
2013-08-31 00:47:00,77.6,66.6,29.93,North,350,0.0,0.0,69,0.00,,,0.00,0,Wunderground v.1.15,2013-08-31 07:47:00,
2013-08-31 00:52:00,77.8,66.4,29.93,North,350,0.0,0.0,68,0.00,,,0.00,0,Wunderground v.1.15,2013-08-31 07:52:00,
2013-08-31 00:58:00,77.8,66.4,29.93,North,350,0.0,0.0,68,0.00,,,0.00,0,Wunderground v.1.15,2013-08-31 07:58:00,
2013-08-31 01:03:00,77.3,65.9,29.93,North,350,0.0,0.0,68,0.00,,,0.00,0,Wunderground v.1.15,2013-08-31 08:03:00,
2013-08-31 01:09:00,77.2,66.2,29.92,North,350,0.0,0.0,69,0.00,,,0.00,0,Wunderground v.1.15,2013-08-31 08:09:00,
2013-08-31 01:14:00,77.4,66.4,29.92,North,350,0.0,0.0,69,0.00,,,0.00,0,Wunderground v.1.15,2013-08-31 08:14:00,
2013-08-31 01:19:00,77.4,66.4,29.92,ESE,119,0.0,0.0,69,0.00,,,0.00,0,Wunderground v.1.15,2013-08-31 08:19:00,
2013-08-31 01:25:00,77.5,66.1,29.92,ESE,119,0.0,0.0,68,0.00,,,0.00,0,Wunderground v.1.15,2013-08-31 08:25:00,
2013-08-31 01:30:00,77.3,65.9,29.92,ESE,119,0.0,0.0,68,0.00,,,0.00,0,Wunderground v.1.15,2013-08-31 08:30:00,
2013-08-31 01:36:00,77.1,66.1,29.92,ESE,119,0.0,0.0,69,0.00,,,0.00,0,Wunderground v.1.15,2013-08-31 08:36:00,
2013-08-31 01:42:00,77.1,66.1,29.92,ESE,119,0.0,0.0,69,0.00,,,0.00,0,Wunderground v.1.15,2013-08-31 08:42:00,
2013-08-31 01:48:00,77.0,66.0,29.92,ESE,119,0.0,0.0,69,0.00,,,0.00,0,Wunderground v.1.15,2013-08-31 08:48:00,
2013-08-31 01:53:00,76.9,66.0,29.92,ESE,119,0.0,0.0,69,0.00,,,0.00,0,Wunderground v.1.15,2013-08-31 08:53:00,
2013-08-31 01:59:00,76.7,65.8,29.92,ESE,119,0.0,0.0,69,0.00,,,0.00,0,Wunderground v.1.15,2013-08-31 08:59:00,
2013-08-31 02:04:00,76.7,65.8,29.92,ESE,119,0.0,0.0,69,0.00,,,0.00,0,Wunderground v.1.15,2013-08-31 09:04:00,
2013-08-31 02:10:00,76.2,65.3,29.92,ESE,119,0.0,0.0,69,0.00,,,0.00,0,Wunderground v.1.15,2013-08-31 09:10:00,
2013-08-31 02:15:00,76.0,65.5,29.91,ESE,119,0.0,0.0,70,0.00,,,0.00,0,Wunderground v.1.15,2013-08-31 09:15:00,
2013-08-31 02:21:00,76.2,65.7,29.91,ESE,119,0.0,0.0,70,0.00,,,0.00,0,Wunderground v.1.15,2013-08-31 09:21:00,
2013-08-31 02:26:00,76.1,66.0,29.91,ESE,119,0.0,0.0,71,0.00,,,0.00,0,Wunderground v.1.15,2013-08-31 09:26:00,
2013-08-31 02:32:00,76.0,65.9,29.91,ESE,119,0.0,0.0,71,0.00,,,0.00,0,Wunderground v.1.15,2013-08-31 09:32:00,
2013-08-31 02:37:00,76.2,66.5,29.91,ESE,119,0.0,2.0,72,0.00,,,0.00,0,Wunderground v.1.15,2013-08-31 09:37:00,
2013-08-31 02:43:00,76.6,66.5,29.91,ESE,119,0.0,0.0,71,0.00,,,0.00,0,Wunderground v.1.15,2013-08-31 09:43:00,
2013-08-31 02:49:00,76.7,66.2,29.91,ESE,119,0.0,0.0,70,0.00,,,0.00,0,Wunderground v.1.15,2013-08-31 09:49:00,
2013-08-31 02:54:00,76.6,66.1,29.91,ESE,119,0.0,0.0,70,0.00,,,0.00,0,Wunderground v.1.15,2013-08-31 09:54:00,
2013-08-31 02:59:00,76.4,66.3,29.91,ESE,119,0.0,0.0,71,0.00,,,0.00,0,Wunderground v.1.15,2013-08-31 09:59:00,
2013-08-31 03:05:00,76.4,66.3,29.91,ESE,119,0.0,0.0,71,0.00,,,0.00,0,Wunderground v.1.15,2013-08-31 10:05:00,
2013-08-31 03:10:00,76.7,66.6,29.91,ESE,119,0.0,0.0,71,0.00,,,0.00,0,Wunderground v.1.15,2013-08-31 10:10:00,
2013-08-31 03:16:00,76.8,66.3,29.91,ESE,119,0.0,0.0,70,0.00,,,0.00,0,Wunderground v.1.15,2013-08-31 10:16:00,
2013-08-31 03:21:00,76.8,66.3,29.91,ESE,119,0.0,0.0,70,0.00,,,0.00,0,Wunderground v.1.15,2013-08-31 10:21:00,
2013-08-31 03:26:00,76.9,66.8,29.91,ESE,119,0.0,0.0,71,0.00,,,0.00,0,Wunderground v.1.15,2013-08-31 10:26:00,
2013-08-31 03:32:00,77.1,66.6,29.91,ESE,119,0.0,0.0,70,0.00,,,0.00,0,Wunderground v.1.15,2013-08-31 10:32:00,
2013-08-31 03:37:00,77.1,66.6,29.91,ESE,119,0.0,0.0,70,0.00,,,0.00,0,Wunderground v.1.15,2013-08-31 10:37:00,
2013-08-31 03:43:00,76.7,66.6,29.90,ESE,119,0.0,0.0,71,0.00,,,0.00,0,Wunderground v.1.15,2013-08-31 10:43:00,
2013-08-31 03:48:00,76.6,66.1,29.91,ESE,119,0.0,0.0,70,0.00,,,0.00,0,Wunderground v.1.15,2013-08-31 10:48:00,
2013-08-31 03:54:00,76.5,66.4,29.90,ESE,119,0.0,0.0,71,0.00,,,0.00,0,Wunderground v.1.15,2013-08-31 10:54:00,
2013-08-31 03:59:00,75.6,66.3,29.91,ESE,119,0.0,0.0,73,0.00,,,0.00,0,Wunderground v.1.15,2013-08-31 10:59:00,
2013-08-31 04:05:00,75.8,65.7,29.90,ESE,119,0.0,0.0,71,0.00,,,0.00,0,Wunderground v.1.15,2013-08-31 11:05:00,
2013-08-31 04:10:00,75.8,65.7,29.90,ESE,119,0.0,0.0,71,0.00,,,0.00,0,Wunderground v.1.15,2013-08-31 11:10:00,
2013-08-31 04:15:00,75.6,65.5,29.90,ESE,119,0.0,0.0,71,0.00,,,0.00,0,Wunderground v.1.15,2013-08-31 11:15:00,
2013-08-31 04:21:00,75.2,65.9,29.90,ESE,119,0.0,0.0,73,0.00,,,0.00,0,Wunderground v.1.15,2013-08-31 11:21:00,
2013-08-31 04:26:00,75.1,65.9,29.90,ESE,119,0.0,0.0,73,0.00,,,0.00,0,Wunderground v.1.15,2013-08-31 11:26:00,
2013-08-31 04:31:00,75.1,65.9,29.90,ESE,119,0.0,0.0,73,0.00,,,0.00,0,Wunderground v.1.15,2013-08-31 11:31:00,
2013-08-31 04:37:00,74.9,65.7,29.90,ESE,119,0.0,0.0,73,0.00,,,0.00,0,Wunderground v.1.15,2013-08-31 11:37:00,
2013-08-31 04:42:00,74.7,65.9,29.90,ESE,119,0.0,0.0,74,0.00,,,0.00,0,Wunderground v.1.15,2013-08-31 11:42:00,
2013-08-31 04:47:00,74.5,65.7,29.90,SE,125,0.0,1.0,74,0.00,,,0.00,0,Wunderground v.1.15,2013-08-31 11:47:00,
2013-08-31 04:53:00,74.4,66.0,29.90,SE,125,0.0,0.0,75,0.00,,,0.00,0,Wunderground v.1.15,2013-08-31 11:53:00,
2013-08-31 04:58:00,74.3,65.5,29.90,SE,125,0.0,1.0,74,0.00,,,0.00,0,Wunderground v.1.15,2013-08-31 11:58:00,
2013-08-31 05:03:00,74.2,65.8,29.90,SE,125,0.0,1.0,75,0.00,,,0.00,0,Wunderground v.1.15,2013-08-31 12:03:00,
2013-08-31 05:09:00,74.3,65.9,29.90,ESE,123,0.0,2.0,75,0.00,,,0.00,0,Wunderground v.1.15,2013-08-31 12:09:00,
2013-08-31 05:14:00,74.2,65.8,29.90,ESE,122,1.0,2.0,75,0.00,,,0.00,0,Wunderground v.1.15,2013-08-31 12:14:00,
2013-08-31 05:19:00,74.3,66.2,29.91,SE,138,2.0,2.0,76,0.00,,,0.00,0,Wunderground v.1.15,2013-08-31 12:19:00,
2013-08-31 05:24:00,74.4,66.3,29.90,SE,128,2.0,3.0,76,0.00,,,0.00,0,Wunderground v.1.15,2013-08-31 12:24:00,
2013-08-31 05:30:00,74.5,66.4,29.90,SE,124,2.0,3.0,76,0.00,,,0.00,0,Wunderground v.1.15,2013-08-31 12:30:00,
2013-08-31 05:35:00,74.5,66.8,29.91,SE,132,2.0,3.0,77,0.00,,,0.00,0,Wunderground v.1.15,2013-08-31 12:35:00,
2013-08-31 05:41:00,74.6,66.5,29.91,ESE,121,2.0,4.0,76,0.00,,,0.00,0,Wunderground v.1.15,2013-08-31 12:41:00,
2013-08-31 05:46:00,74.6,66.9,29.91,SE,127,3.0,5.0,77,0.00,,,0.00,0,Wunderground v.1.15,2013-08-31 12:46:00,
2013-08-31 05:52:00,74.7,67.0,29.91,SE,124,3.0,4.0,77,0.00,,,0.00,0,Wunderground v.1.15,2013-08-31 12:52:00,
2013-08-31 05:57:00,74.7,67.0,29.91,SE,126,3.0,4.0,77,0.00,,,0.00,0,Wunderground v.1.15,2013-08-31 12:57:00,
2013-08-31 06:03:00,74.8,67.1,29.91,SE,128,2.0,2.0,77,0.00,,,0.00,0,Wunderground v.1.15,2013-08-31 13:03:00,
2013-08-31 06:08:00,74.8,67.1,29.91,SE,134,2.0,4.0,77,0.00,,,0.00,0,Wunderground v.1.15,2013-08-31 13:08:00,
2013-08-31 06:14:00,75.0,67.3,29.91,ESE,117,2.0,3.0,77,0.00,,,0.00,0,Wunderground v.1.15,2013-08-31 13:14:00,
2013-08-31 06:19:00,75.1,67.4,29.92,SE,129,1.0,1.0,77,0.00,,,0.00,0,Wunderground v.1.15,2013-08-31 13:19:00,
2013-08-31 06:24:00,75.1,67.4,29.92,SE,128,1.0,1.0,77,0.00,,,0.00,0,Wunderground v.1.15,2013-08-31 13:24:00,
2013-08-31 06:30:00,75.3,67.6,29.92,SE,128,0.0,0.0,77,0.00,,,0.00,0,Wunderground v.1.15,2013-08-31 13:30:00,
2013-08-31 06:35:00,75.4,67.7,29.92,NW,325,0.0,0.0,77,0.00,,,0.00,5,Wunderground v.1.15,2013-08-31 13:35:00,
2013-08-31 06:40:00,75.4,67.3,29.92,SE,130,0.0,0.0,76,0.00,,,0.00,7,Wunderground v.1.15,2013-08-31 13:40:00,
2013-08-31 06:46:00,75.4,67.3,29.93,SE,130,0.0,0.0,76,0.00,,,0.00,9,Wunderground v.1.15,2013-08-31 13:46:00,
2013-08-31 06:51:00,75.5,67.4,29.93,SE,130,0.0,0.0,76,0.00,,,0.00,11,Wunderground v.1.15,2013-08-31 13:51:00,
2013-08-31 06:56:00,75.4,67.3,29.93,SW,225,0.0,5.0,76,0.00,,,0.00,12,Wunderground v.1.15,2013-08-31 13:56:00,
2013-08-31 07:02:00,75.4,67.7,29.93,East,85,0.0,0.0,77,0.00,,,0.00,16,Wunderground v.1.15,2013-08-31 14:02:00,
2013-08-31 07:07:00,75.3,67.6,29.92,East,85,0.0,0.0,77,0.00,,,0.00,21,Wunderground v.1.15,2013-08-31 14:07:00,
2013-08-31 07:13:00,75.6,67.5,29.93,East,85,0.0,0.0,76,0.00,,,0.00,26,Wunderground v.1.15,2013-08-31 14:13:00,
2013-08-31 07:18:00,75.4,67.7,29.93,East,85,0.0,0.0,77,0.00,,,0.00,33,Wunderground v.1.15,2013-08-31 14:18:00,
2013-08-31 07:23:00,75.6,67.9,29.93,East,83,0.0,0.0,77,0.00,,,0.00,40,Wunderground v.1.15,2013-08-31 14:23:00,
2013-08-31 07:28:00,75.8,67.7,29.93,East,83,0.0,0.0,76,0.00,,,0.00,49,Wunderground v.1.15,2013-08-31 14:28:00,
2013-08-31 07:34:00,76.0,67.9,29.93,North,11,0.0,0.0,76,0.00,,,0.00,62,Wunderground v.1.15,2013-08-31 14:34:00,
2013-08-31 07:39:00,76.1,68.0,29.93,North,360,0.0,0.0,76,0.00,,,0.00,74,Wunderground v.1.15,2013-08-31 14:39:00,
2013-08-31 07:44:00,76.6,68.1,29.93,NW,306,0.0,1.0,75,0.00,,,0.00,90,Wunderground v.1.15,2013-08-31 14:44:00,
2013-08-31 07:50:00,76.9,66.4,29.93,WNW,292,0.0,1.0,70,0.00,,,0.00,97,Wunderground v.1.15,2013-08-31 14:50:00,
2013-08-31 07:55:00,77.1,65.7,29.93,WNW,292,0.0,1.0,68,0.00,,,0.00,105,Wunderground v.1.15,2013-08-31 14:55:00,
2013-08-31 08:01:00,77.7,65.4,29.93,WNW,284,0.0,0.0,66,0.00,,,0.00,120,Wunderground v.1.15,2013-08-31 15:01:00,
2013-08-31 08:06:00,78.0,65.3,29.93,WNW,284,0.0,1.0,65,0.00,,,0.00,125,Wunderground v.1.15,2013-08-31 15:06:00,
2013-08-31 08:12:00,78.2,64.6,29.93,WNW,284,0.0,0.0,63,0.00,,,0.00,135,Wunderground v.1.15,2013-08-31 15:12:00,
2013-08-31 08:18:00,78.6,65.4,29.93,SW,219,0.0,1.0,64,0.00,,,0.00,137,Wunderground v.1.15,2013-08-31 15:18:00,
2013-08-31 08:23:00,78.7,65.5,29.93,NW,306,0.0,1.0,64,0.00,,,0.00,127,Wunderground v.1.15,2013-08-31 15:23:00,
2013-08-31 08:29:00,78.6,65.8,29.94,NW,319,0.0,1.0,65,0.00,,,0.00,139,Wunderground v.1.15,2013-08-31 15:29:00,
2013-08-31 08:34:00,78.7,66.4,29.93,NW,319,0.0,1.0,66,0.00,,,0.00,155,Wunderground v.1.15,2013-08-31 15:34:00,
2013-08-31 08:40:00,78.9,66.6,29.94,NW,313,0.0,0.0,66,0.00,,,0.00,167,Wunderground v.1.15,2013-08-31 15:40:00,
2013-08-31 08:45:00,79.7,66.4,29.94,West,271,0.0,1.0,64,0.00,,,0.00,211,Wunderground v.1.15,2013-08-31 15:45:00,
2013-08-31 08:50:00,79.6,65.9,29.94,NW,309,1.0,2.0,63,0.00,,,0.00,192,Wunderground v.1.15,2013-08-31 15:50:00,
2013-08-31 08:56:00,80.1,66.4,29.94,SW,229,1.0,2.0,63,0.00,,,0.00,192,Wunderground v.1.15,2013-08-31 15:56:00,
2013-08-31 09:01:00,80.8,66.6,29.94,SW,221,1.0,1.0,62,0.00,,,0.00,183,Wunderground v.1.15,2013-08-31 16:01:00,
2013-08-31 09:06:00,81.0,67.2,29.94,WSW,238,1.0,1.0,63,0.00,,,0.00,176,Wunderground v.1.15,2013-08-31 16:06:00,
2013-08-31 09:12:00,80.9,67.1,29.94,SW,231,1.0,2.0,63,0.00,,,0.00,178,Wunderground v.1.15,2013-08-31 16:12:00,
2013-08-31 09:17:00,81.0,66.3,29.94,NW,315,1.0,2.0,61,0.00,,,0.00,183,Wunderground v.1.15,2013-08-31 16:17:00,
2013-08-31 09:22:00,81.0,66.8,29.94,West,260,2.0,2.0,62,0.00,,,0.00,193,Wunderground v.1.15,2013-08-31 16:22:00,
2013-08-31 09:28:00,81.7,67.4,29.94,West,261,2.0,3.0,62,0.00,,,0.00,253,Wunderground v.1.15,2013-08-31 16:28:00,
2013-08-31 09:33:00,82.1,67.3,29.94,SSW,212,2.0,3.0,61,0.00,,,0.00,452,Wunderground v.1.15,2013-08-31 16:33:00,
2013-08-31 09:38:00,82.8,67.5,29.94,SW,223,2.0,4.0,60,0.00,,,0.00,271,Wunderground v.1.15,2013-08-31 16:38:00,
2013-08-31 09:44:00,82.8,68.0,29.94,SW,228,3.0,4.0,61,0.00,,,0.00,271,Wunderground v.1.15,2013-08-31 16:44:00,
2013-08-31 09:49:00,82.7,67.9,29.94,West,271,3.0,3.0,61,0.00,,,0.00,283,Wunderground v.1.15,2013-08-31 16:49:00,
2013-08-31 09:54:00,83.2,68.3,29.94,SSW,198,3.0,5.0,61,0.00,,,0.00,504,Wunderground v.1.15,2013-08-31 16:54:00,
2013-08-31 09:59:00,83.8,68.9,29.94,South,191,3.0,3.0,61,0.00,,,0.00,455,Wunderground v.1.15,2013-08-31 16:59:00,
2013-08-31 10:05:00,84.3,69.4,29.94,SSW,200,3.0,5.0,61,0.00,,,0.00,591,Wunderground v.1.15,2013-08-31 17:05:00,
2013-08-31 10:10:00,84.7,69.3,29.94,NW,311,2.0,2.0,60,0.00,,,0.00,589,Wunderground v.1.15,2013-08-31 17:10:00,
2013-08-31 10:15:00,85.2,70.2,29.94,South,175,3.0,4.0,61,0.00,,,0.00,376,Wunderground v.1.15,2013-08-31 17:15:00,
2013-08-31 10:21:00,85.0,70.0,29.94,SW,224,4.0,6.0,61,0.00,,,0.00,429,Wunderground v.1.15,2013-08-31 17:21:00,
2013-08-31 10:26:00,85.3,70.3,29.94,SW,232,3.0,6.0,61,0.00,,,0.00,494,Wunderground v.1.15,2013-08-31 17:26:00,
2013-08-31 10:32:00,85.2,70.2,29.94,WNW,286,2.0,3.0,61,0.00,,,0.00,608,Wunderground v.1.15,2013-08-31 17:32:00,
2013-08-31 10:37:00,85.6,70.6,29.94,SW,223,2.0,4.0,61,0.00,,,0.00,631,Wunderground v.1.15,2013-08-31 17:37:00,
2013-08-31 10:42:00,86.8,69.7,29.94,SSW,207,3.0,6.0,57,0.00,,,0.00,742,Wunderground v.1.15,2013-08-31 17:42:00,
2013-08-31 10:48:00,87.5,70.4,29.94,West,275,3.0,8.0,57,0.00,,,0.00,628,Wunderground v.1.15,2013-08-31 17:48:00,
2013-08-31 10:54:00,87.4,70.3,29.94,SW,229,3.0,8.0,57,0.00,,,0.00,671,Wunderground v.1.15,2013-08-31 17:54:00,
2013-08-31 10:59:00,87.9,70.2,29.94,SW,234,4.0,4.0,56,0.00,,,0.00,452,Wunderground v.1.15,2013-08-31 17:59:00,
2013-08-31 11:05:00,86.9,69.8,29.94,NW,318,3.0,5.0,57,0.00,,,0.00,475,Wunderground v.1.15,2013-08-31 18:05:00,
2013-08-31 11:10:00,87.5,70.4,29.93,South,179,3.0,5.0,57,0.00,,,0.00,538,Wunderground v.1.15,2013-08-31 18:10:00,
2013-08-31 11:15:00,87.8,70.1,29.93,West,265,3.0,5.0,56,0.00,,,0.00,670,Wunderground v.1.15,2013-08-31 18:15:00,
2013-08-31 11:21:00,88.5,70.3,29.93,WSW,257,3.0,6.0,55,0.00,,,0.00,596,Wunderground v.1.15,2013-08-31 18:21:00,
2013-08-31 11:26:00,87.7,70.1,29.93,WNW,295,4.0,7.0,56,0.00,,,0.00,512,Wunderground v.1.15,2013-08-31 18:26:00,
2013-08-31 11:31:00,87.5,70.4,29.93,West,277,5.0,5.0,57,0.00,,,0.00,997,Wunderground v.1.15,2013-08-31 18:31:00,
2013-08-31 11:37:00,88.1,70.4,29.93,SSE,166,5.0,7.0,56,0.00,,,0.00,1120,Wunderground v.1.15,2013-08-31 18:37:00,
2013-08-31 11:42:00,90.0,70.6,29.93,SW,219,5.0,5.0,53,0.00,,,0.00,865,Wunderground v.1.15,2013-08-31 18:42:00,
2013-08-31 11:47:00,90.2,70.8,29.93,SW,232,4.0,9.0,53,0.00,,,0.00,540,Wunderground v.1.15,2013-08-31 18:47:00,
2013-08-31 11:53:00,89.5,70.1,29.93,SW,229,5.0,8.0,53,0.00,,,0.00,621,Wunderground v.1.15,2013-08-31 18:53:00,
2013-08-31 11:58:00,88.3,70.1,29.93,WSW,239,6.0,10.0,55,0.00,,,0.00,548,Wunderground v.1.15,2013-08-31 18:58:00,
2013-08-31 12:03:00,88.2,70.0,29.93,SW,218,6.0,8.0,55,0.00,,,0.00,661,Wunderground v.1.15,2013-08-31 19:03:00,
2013-08-31 12:09:00,88.3,70.1,29.93,SSE,163,5.0,5.0,55,0.00,,,0.00,538,Wunderground v.1.15,2013-08-31 19:09:00,
2013-08-31 12:14:00,87.9,70.2,29.92,SW,230,5.0,6.0,56,0.00,,,0.00,670,Wunderground v.1.15,2013-08-31 19:14:00,
2013-08-31 12:19:00,88.6,70.4,29.92,SW,229,5.0,5.0,55,0.00,,,0.00,499,Wunderground v.1.15,2013-08-31 19:19:00,
2013-08-31 12:25:00,88.3,70.6,29.92,SSW,209,6.0,9.0,56,0.00,,,0.00,533,Wunderground v.1.15,2013-08-31 19:25:00,
2013-08-31 12:31:00,88.4,70.7,29.92,SSW,210,5.0,5.0,56,0.00,,,0.00,506,Wunderground v.1.15,2013-08-31 19:31:00,
2013-08-31 12:36:00,88.7,70.5,29.92,SSW,194,4.0,7.0,55,0.00,,,0.00,831,Wunderground v.1.15,2013-08-31 19:36:00,
2013-08-31 12:42:00,89.3,70.5,29.92,WNW,290,4.0,5.0,54,0.00,,,0.00,875,Wunderground v.1.15,2013-08-31 19:42:00,
2013-08-31 12:48:00,90.0,71.1,29.92,West,281,4.0,7.0,54,0.00,,,0.00,911,Wunderground v.1.15,2013-08-31 19:48:00,
2013-08-31 12:53:00,90.0,71.1,29.92,SSW,205,4.0,7.0,54,0.00,,,0.00,902,Wunderground v.1.15,2013-08-31 19:53:00,
2013-08-31 12:59:00,90.4,70.9,29.91,SW,217,5.0,8.0,53,0.00,,,0.00,856,Wunderground v.1.15,2013-08-31 19:59:00,
2013-08-31 13:05:00,90.0,70.6,29.91,WSW,244,5.0,9.0,53,0.00,,,0.00,715,Wunderground v.1.15,2013-08-31 20:05:00,
2013-08-31 13:11:00,89.9,71.0,29.91,SW,215,4.0,4.0,54,0.00,,,0.00,856,Wunderground v.1.15,2013-08-31 20:11:00,
2013-08-31 13:16:00,90.4,70.9,29.91,West,273,3.0,6.0,53,0.00,,,0.00,935,Wunderground v.1.15,2013-08-31 20:16:00,
2013-08-31 13:22:00,90.3,70.8,29.91,SSW,198,5.0,9.0,53,0.00,,,0.00,682,Wunderground v.1.15,2013-08-31 20:22:00,
2013-08-31 13:27:00,90.0,70.6,29.91,SW,219,5.0,10.0,53,0.00,,,0.00,800,Wunderground v.1.15,2013-08-31 20:27:00,
2013-08-31 13:32:00,90.0,70.6,29.91,SSW,197,5.0,10.0,53,0.00,,,0.00,963,Wunderground v.1.15,2013-08-31 20:32:00,
2013-08-31 13:38:00,90.0,70.6,29.90,WSW,242,6.0,10.0,53,0.00,,,0.00,489,Wunderground v.1.15,2013-08-31 20:38:00,
2013-08-31 13:43:00,90.0,70.6,29.91,SW,229,6.0,10.0,53,0.00,,,0.00,803,Wunderground v.1.15,2013-08-31 20:43:00,
2013-08-31 13:49:00,90.2,70.8,29.90,West,268,5.0,7.0,53,0.00,,,0.00,675,Wunderground v.1.15,2013-08-31 20:49:00,
2013-08-31 13:55:00,89.6,70.2,29.90,SE,136,4.0,9.0,53,0.00,,,0.00,663,Wunderground v.1.15,2013-08-31 20:55:00,
2013-08-31 14:00:00,90.3,70.8,29.89,WSW,253,5.0,7.0,53,0.00,,,0.00,596,Wunderground v.1.15,2013-08-31 21:00:00,
2013-08-31 14:05:00,90.7,70.7,29.89,NNE,30,5.0,9.0,52,0.00,,,0.00,550,Wunderground v.1.15,2013-08-31 21:05:00,
2013-08-31 14:11:00,91.3,71.2,29.89,WSW,252,5.0,9.0,52,0.00,,,0.00,930,Wunderground v.1.15,2013-08-31 21:11:00,
2013-08-31 14:16:00,91.2,70.5,29.89,SSW,203,5.0,10.0,51,0.00,,,0.00,461,Wunderground v.1.15,2013-08-31 21:16:00,
2013-08-31 14:21:00,90.6,70.6,29.89,SW,225,5.0,11.0,52,0.00,,,0.00,745,Wunderground v.1.15,2013-08-31 21:21:00,
2013-08-31 14:26:00,90.5,70.5,29.89,SW,222,6.0,11.0,52,0.00,,,0.00,483,Wunderground v.1.15,2013-08-31 21:26:00,
2013-08-31 14:32:00,90.8,70.7,29.89,SW,223,4.0,5.0,52,0.00,,,0.00,448,Wunderground v.1.15,2013-08-31 21:32:00,
2013-08-31 14:37:00,90.0,70.6,29.89,SSW,207,4.0,8.0,53,0.00,,,0.00,476,Wunderground v.1.15,2013-08-31 21:37:00,
2013-08-31 14:42:00,90.3,70.8,29.88,WSW,238,4.0,7.0,53,0.00,,,0.00,761,Wunderground v.1.15,2013-08-31 21:42:00,
2013-08-31 14:48:00,90.9,70.8,29.88,SW,222,5.0,8.0,52,0.00,,,0.00,652,Wunderground v.1.15,2013-08-31 21:48:00,
2013-08-31 14:53:00,91.2,70.5,29.88,WSW,248,6.0,8.0,51,0.00,,,0.00,717,Wunderground v.1.15,2013-08-31 21:53:00,
2013-08-31 14:58:00,91.6,70.3,29.88,SSW,213,6.0,12.0,50,0.00,,,0.00,735,Wunderground v.1.15,2013-08-31 21:58:00,
2013-08-31 15:04:00,91.6,70.9,29.88,SSW,201,6.0,10.0,51,0.00,,,0.00,712,Wunderground v.1.15,2013-08-31 22:04:00,
2013-08-31 15:09:00,91.9,70.6,29.87,WSW,240,6.0,6.0,50,0.00,,,0.00,696,Wunderground v.1.15,2013-08-31 22:09:00,
2013-08-31 15:14:00,92.1,70.2,29.87,WSW,238,7.0,12.0,49,0.00,,,0.00,684,Wunderground v.1.15,2013-08-31 22:14:00,
2013-08-31 15:20:00,92.5,70.6,29.87,SW,226,6.0,9.0,49,0.00,,,0.00,671,Wunderground v.1.15,2013-08-31 22:20:00,
2013-08-31 15:25:00,92.5,70.6,29.87,SSW,213,5.0,9.0,49,0.00,,,0.00,656,Wunderground v.1.15,2013-08-31 22:25:00,
2013-08-31 15:31:00,91.8,69.9,29.86,WSW,243,5.0,6.0,49,0.00,,,0.00,635,Wunderground v.1.15,2013-08-31 22:31:00,
2013-08-31 15:36:00,92.3,70.4,29.86,SSW,213,6.0,8.0,49,0.00,,,0.00,608,Wunderground v.1.15,2013-08-31 22:36:00,
2013-08-31 15:42:00,92.3,70.4,29.86,WSW,254,5.0,8.0,49,0.00,,,0.00,584,Wunderground v.1.15,2013-08-31 22:42:00,
2013-08-31 15:47:00,92.5,70.6,29.86,SW,234,5.0,8.0,49,0.00,,,0.00,566,Wunderground v.1.15,2013-08-31 22:47:00,
2013-08-31 15:52:00,92.4,69.9,29.86,SSW,202,6.0,8.0,48,0.00,,,0.00,550,Wunderground v.1.15,2013-08-31 22:52:00,
2013-08-31 15:58:00,92.1,70.2,29.85,SSW,207,6.0,13.0,49,0.00,,,0.00,534,Wunderground v.1.15,2013-08-31 22:58:00,
2013-08-31 16:04:00,92.1,70.2,29.85,SW,221,6.0,11.0,49,0.00,,,0.00,515,Wunderground v.1.15,2013-08-31 23:04:00,
2013-08-31 16:09:00,91.9,70.0,29.85,SW,215,6.0,6.0,49,0.00,,,0.00,504,Wunderground v.1.15,2013-08-31 23:09:00,
2013-08-31 16:14:00,92.1,69.6,29.85,NW,322,5.0,8.0,48,0.00,,,0.00,490,Wunderground v.1.15,2013-08-31 23:14:00,
2013-08-31 16:20:00,93.1,69.9,29.85,SSW,206,5.0,8.0,47,0.00,,,0.00,480,Wunderground v.1.15,2013-08-31 23:20:00,
2013-08-31 16:26:00,92.6,68.8,29.85,WNW,294,5.0,8.0,46,0.00,,,0.00,457,Wunderground v.1.15,2013-08-31 23:26:00,
2013-08-31 16:32:00,91.8,69.3,29.84,West,278,5.0,6.0,48,0.00,,,0.00,452,Wunderground v.1.15,2013-08-31 23:32:00,
2013-08-31 16:38:00,92.0,68.9,29.84,West,271,5.0,10.0,47,0.00,,,0.00,438,Wunderground v.1.15,2013-08-31 23:38:00,
2013-08-31 16:43:00,91.4,69.0,29.84,WSW,257,6.0,9.0,48,0.00,,,0.00,424,Wunderground v.1.15,2013-08-31 23:43:00,
2013-08-31 16:49:00,91.6,69.1,29.85,SW,236,6.0,6.0,48,0.00,,,0.00,415,Wunderground v.1.15,2013-08-31 23:49:00,
2013-08-31 16:54:00,92.3,69.2,29.85,SW,227,4.0,10.0,47,0.00,,,0.00,408,Wunderground v.1.15,2013-08-31 23:54:00,
2013-08-31 16:59:00,92.1,69.6,29.84,NNW,338,5.0,6.0,48,0.00,,,0.00,397,Wunderground v.1.15,2013-08-31 23:59:00,
2013-08-31 17:05:00,91.4,69.6,29.84,NW,323,5.0,9.0,49,0.00,,,0.00,387,Wunderground v.1.15,2013-09-01 00:05:00,
2013-08-31 17:10:00,91.0,69.2,29.84,WNW,292,5.0,9.0,49,0.00,,,0.00,374,Wunderground v.1.15,2013-09-01 00:10:00,
2013-08-31 17:15:00,90.5,69.3,29.84,WNW,283,6.0,10.0,50,0.00,,,0.00,359,Wunderground v.1.15,2013-09-01 00:15:00,
2013-08-31 17:21:00,90.7,69.5,29.84,WNW,301,6.0,8.0,50,0.00,,,0.00,336,Wunderground v.1.15,2013-09-01 00:21:00,
2013-08-31 17:26:00,90.0,69.4,29.85,NNW,334,6.0,8.0,51,0.00,,,0.00,239,Wunderground v.1.15,2013-09-01 00:26:00,
2013-08-31 17:32:00,89.1,69.2,29.85,WSW,246,6.0,6.0,52,0.00,,,0.00,246,Wunderground v.1.15,2013-09-01 00:32:00,
2013-08-31 17:37:00,89.2,69.3,29.85,SW,228,6.0,10.0,52,0.00,,,0.00,190,Wunderground v.1.15,2013-09-01 00:37:00,
2013-08-31 17:43:00,88.8,69.5,29.85,West,275,5.0,6.0,53,0.00,,,0.00,192,Wunderground v.1.15,2013-09-01 00:43:00,
2013-08-31 17:48:00,88.8,69.5,29.85,WSW,240,5.0,7.0,53,0.00,,,0.00,186,Wunderground v.1.15,2013-09-01 00:48:00,
2013-08-31 17:54:00,88.2,68.9,29.85,WNW,302,5.0,7.0,53,0.00,,,0.00,179,Wunderground v.1.15,2013-09-01 00:54:00,
2013-08-31 17:59:00,88.6,69.3,29.85,NW,307,4.0,4.0,53,0.00,,,0.00,165,Wunderground v.1.15,2013-09-01 00:59:00,
2013-08-31 18:05:00,88.2,69.5,29.85,SW,232,3.0,5.0,54,0.00,,,0.00,153,Wunderground v.1.15,2013-09-01 01:05:00,
2013-08-31 18:11:00,88.1,69.4,29.85,WNW,289,4.0,5.0,54,0.00,,,0.00,141,Wunderground v.1.15,2013-09-01 01:11:00,
2013-08-31 18:16:00,87.9,69.7,29.85,WSW,249,4.0,5.0,55,0.00,,,0.00,134,Wunderground v.1.15,2013-09-01 01:16:00,
2013-08-31 18:22:00,88.0,69.8,29.85,West,269,4.0,4.0,55,0.00,,,0.00,116,Wunderground v.1.15,2013-09-01 01:22:00,
2013-08-31 18:27:00,87.9,69.7,29.85,West,271,3.0,8.0,55,0.00,,,0.00,93,Wunderground v.1.15,2013-09-01 01:27:00,
2013-08-31 18:33:00,87.4,69.8,29.85,SW,228,4.0,5.0,56,0.00,,,0.00,74,Wunderground v.1.15,2013-09-01 01:33:00,
2013-08-31 18:38:00,87.1,70.0,29.86,WNW,290,4.0,6.0,57,0.00,,,0.00,56,Wunderground v.1.15,2013-09-01 01:38:00,
2013-08-31 18:44:00,86.9,69.8,29.86,West,279,4.0,6.0,57,0.00,,,0.00,42,Wunderground v.1.15,2013-09-01 01:44:00,
2013-08-31 18:49:00,86.4,69.9,29.86,SW,221,4.0,4.0,58,0.00,,,0.00,30,Wunderground v.1.15,2013-09-01 01:49:00,
2013-08-31 18:54:00,86.4,69.9,29.86,WSW,248,4.0,6.0,58,0.00,,,0.00,23,Wunderground v.1.15,2013-09-01 01:54:00,
2013-08-31 18:59:00,86.0,69.5,29.86,West,267,4.0,4.0,58,0.00,,,0.00,18,Wunderground v.1.15,2013-09-01 01:59:00,
2013-08-31 19:05:00,85.8,69.8,29.86,SW,234,4.0,6.0,59,0.00,,,0.00,12,Wunderground v.1.15,2013-09-01 02:05:00,
2013-08-31 19:11:00,85.5,69.5,29.87,WSW,242,4.0,5.0,59,0.00,,,0.00,11,Wunderground v.1.15,2013-09-01 02:11:00,
2013-08-31 19:16:00,85.1,69.7,29.87,WSW,243,4.0,5.0,60,0.00,,,0.00,7,Wunderground v.1.15,2013-09-01 02:16:00,
2013-08-31 19:21:00,84.7,69.8,29.88,WNW,298,3.0,4.0,61,0.00,,,0.00,5,Wunderground v.1.15,2013-09-01 02:21:00,
2013-08-31 19:27:00,84.6,69.7,29.88,WSW,247,3.0,4.0,61,0.00,,,0.00,0,Wunderground v.1.15,2013-09-01 02:27:00,
2013-08-31 19:32:00,84.4,69.5,29.88,SW,218,3.0,5.0,61,0.00,,,0.00,0,Wunderground v.1.15,2013-09-01 02:32:00,
2013-08-31 19:38:00,84.0,69.6,29.89,West,281,3.0,6.0,62,0.00,,,0.00,0,Wunderground v.1.15,2013-09-01 02:38:00,
2013-08-31 19:43:00,83.8,69.4,29.89,WSW,243,3.0,4.0,62,0.00,,,0.00,0,Wunderground v.1.15,2013-09-01 02:43:00,
2013-08-31 19:48:00,83.6,69.7,29.89,SW,229,3.0,6.0,63,0.00,,,0.00,0,Wunderground v.1.15,2013-09-01 02:48:00,
2013-08-31 19:54:00,83.4,69.5,29.89,WSW,250,3.0,4.0,63,0.00,,,0.00,0,Wunderground v.1.15,2013-09-01 02:54:00,
2013-08-31 19:59:00,83.2,69.3,29.90,SW,231,3.0,3.0,63,0.00,,,0.00,0,Wunderground v.1.15,2013-09-01 02:59:00,
2013-08-31 20:05:00,83.0,69.6,29.90,NW,314,3.0,4.0,64,0.00,,,0.00,0,Wunderground v.1.15,2013-09-01 03:05:00,
2013-08-31 20:10:00,82.7,69.3,29.90,SW,225,2.0,4.0,64,0.00,,,0.00,0,Wunderground v.1.15,2013-09-01 03:10:00,
2013-08-31 20:16:00,82.6,69.6,29.90,West,266,1.0,4.0,65,0.00,,,0.00,0,Wunderground v.1.15,2013-09-01 03:16:00,
2013-08-31 20:21:00,82.5,69.5,29.90,SW,224,2.0,3.0,65,0.00,,,0.00,0,Wunderground v.1.15,2013-09-01 03:21:00,
2013-08-31 20:27:00,82.4,69.4,29.90,SSW,213,3.0,5.0,65,0.00,,,0.00,0,Wunderground v.1.15,2013-09-01 03:27:00,
2013-08-31 20:32:00,82.3,69.8,29.90,WSW,244,2.0,4.0,66,0.00,,,0.00,0,Wunderground v.1.15,2013-09-01 03:32:00,
2013-08-31 20:38:00,82.1,69.6,29.90,SW,234,3.0,5.0,66,0.00,,,0.00,0,Wunderground v.1.15,2013-09-01 03:38:00,
2013-08-31 20:43:00,82.0,69.5,29.91,West,259,2.0,3.0,66,0.00,,,0.00,0,Wunderground v.1.15,2013-09-01 03:43:00,
2013-08-31 20:49:00,81.8,69.3,29.90,WSW,253,2.0,4.0,66,0.00,,,0.00,0,Wunderground v.1.15,2013-09-01 03:49:00,
2013-08-31 20:54:00,81.7,69.7,29.91,SSW,209,3.0,4.0,67,0.00,,,0.00,0,Wunderground v.1.15,2013-09-01 03:54:00,
2013-08-31 20:59:00,81.8,69.8,29.91,SW,221,2.0,2.0,67,0.00,,,0.00,0,Wunderground v.1.15,2013-09-01 03:59:00,
2013-08-31 21:01:00,81.8,69.3,29.91,SSW,202,1.0,2.0,66,0.00,,,0.00,0,Wunderground v.1.15,2013-09-01 04:01:00,
2013-08-31 21:02:00,81.7,69.2,29.91,South,171,1.0,2.0,66,0.00,,,0.00,0,Wunderground v.1.15,2013-09-01 04:02:00,
2013-08-31 21:03:00,81.6,68.7,29.91,SSE,157,1.0,2.0,65,0.00,,,0.00,0,Wunderground v.1.15,2013-09-01 04:03:00,
2013-08-31 21:04:00,81.5,68.6,29.91,SSE,157,1.0,2.0,65,0.00,,,0.00,0,Wunderground v.1.15,2013-09-01 04:04:00,
2013-08-31 21:10:00,80.9,68.5,29.91,SSE,148,1.0,3.0,66,0.00,,,0.00,0,Wunderground v.1.15,2013-09-01 04:10:00,
2013-08-31 21:13:00,80.6,68.2,29.91,SSW,200,1.0,3.0,66,0.00,,,0.00,0,Wunderground v.1.15,2013-09-01 04:13:00,
2013-08-31 21:18:00,80.2,68.2,29.91,SE,137,2.0,3.0,67,0.00,,,0.00,0,Wunderground v.1.15,2013-09-01 04:18:00,
2013-08-31 21:24:00,79.8,67.9,29.92,South,183,2.0,4.0,67,0.00,,,0.00,0,Wunderground v.1.15,2013-09-01 04:24:00,
2013-08-31 21:29:00,79.5,68.0,29.92,SE,138,2.0,2.0,68,0.00,,,0.00,0,Wunderground v.1.15,2013-09-01 04:29:00,
2013-08-31 21:34:00,79.4,67.9,29.92,SE,126,2.0,3.0,68,0.00,,,0.00,0,Wunderground v.1.15,2013-09-01 04:34:00,
2013-08-31 21:40:00,79.1,67.6,29.92,SE,142,2.0,2.0,68,0.00,,,0.00,0,Wunderground v.1.15,2013-09-01 04:40:00,
2013-08-31 21:45:00,78.9,67.4,29.92,South,182,2.0,5.0,68,0.00,,,0.00,0,Wunderground v.1.15,2013-09-01 04:45:00,
2013-08-31 21:50:00,78.7,67.2,29.92,SSE,162,1.0,1.0,68,0.00,,,0.00,0,Wunderground v.1.15,2013-09-01 04:50:00,
2013-08-31 21:55:00,78.6,67.2,29.92,WSW,257,0.0,5.0,68,0.00,,,0.00,0,Wunderground v.1.15,2013-09-01 04:55:00,
2013-08-31 22:01:00,78.4,67.0,29.92,WNW,302,1.0,2.0,68,0.00,,,0.00,0,Wunderground v.1.15,2013-09-01 05:01:00,
2013-08-31 22:06:00,78.3,67.3,29.92,West,266,1.0,2.0,69,0.00,,,0.00,0,Wunderground v.1.15,2013-09-01 05:06:00,
2013-08-31 22:12:00,78.5,67.5,29.92,SSW,210,1.0,1.0,69,0.00,,,0.00,0,Wunderground v.1.15,2013-09-01 05:12:00,
2013-08-31 22:17:00,78.4,67.4,29.92,WSW,250,1.0,3.0,69,0.00,,,0.00,0,Wunderground v.1.15,2013-09-01 05:17:00,
2013-08-31 22:23:00,78.4,67.4,29.92,NW,326,1.0,1.0,69,0.00,,,0.00,0,Wunderground v.1.15,2013-09-01 05:23:00,
2013-08-31 22:24:00,78.3,67.3,29.92,NNW,329,1.0,1.0,69,0.00,,,0.00,0,Wunderground v.1.15,2013-09-01 05:24:00,
2013-08-31 22:29:00,78.0,67.0,29.92,WSW,238,0.0,0.0,69,0.00,,,0.00,0,Wunderground v.1.15,2013-09-01 05:29:00,
2013-08-31 22:35:00,78.1,67.1,29.92,SSW,203,0.0,0.0,69,0.00,,,0.00,0,Wunderground v.1.15,2013-09-01 05:35:00,
2013-08-31 22:40:00,78.0,67.0,29.92,South,187,0.0,2.0,69,0.00,,,0.00,0,Wunderground v.1.15,2013-09-01 05:40:00,
2013-08-31 22:46:00,77.9,66.9,29.92,WSW,256,0.0,2.0,69,0.00,,,0.00,0,Wunderground v.1.15,2013-09-01 05:46:00,
2013-08-31 22:51:00,77.5,66.5,29.92,West,274,0.0,1.0,69,0.00,,,0.00,0,Wunderground v.1.15,2013-09-01 05:51:00,
2013-08-31 22:57:00,77.2,66.7,29.92,WSW,246,1.0,2.0,70,0.00,,,0.00,0,Wunderground v.1.15,2013-09-01 05:57:00,
2013-08-31 23:04:00,77.0,66.5,29.92,West,273,1.0,2.0,70,0.00,,,0.00,0,Wunderground v.1.15,2013-09-01 06:04:00,
2013-08-31 23:09:00,77.0,66.5,29.92,West,277,0.0,0.0,70,0.00,,,0.00,0,Wunderground v.1.15,2013-09-01 06:09:00,
2013-08-31 23:15:00,77.0,66.5,29.91,West,277,0.0,0.0,70,0.00,,,0.00,0,Wunderground v.1.15,2013-09-01 06:15:00,
2013-08-31 23:20:00,77.0,66.5,29.92,SW,214,0.0,2.0,70,0.00,,,0.00,0,Wunderground v.1.15,2013-09-01 06:20:00,
2013-08-31 23:26:00,77.1,66.1,29.91,SW,225,0.0,2.0,69,0.00,,,0.00,0,Wunderground v.1.15,2013-09-01 06:26:00,
2013-08-31 23:31:00,77.3,66.3,29.92,SW,225,0.0,0.0,69,0.00,,,0.00,0,Wunderground v.1.15,2013-09-01 06:31:00,
2013-08-31 23:37:00,77.2,66.2,29.91,SW,221,0.0,1.0,69,0.00,,,0.00,0,Wunderground v.1.15,2013-09-01 06:37:00,
2013-08-31 23:42:00,77.1,66.1,29.91,SW,221,0.0,0.0,69,0.00,,,0.00,0,Wunderground v.1.15,2013-09-01 06:42:00,
2013-08-31 23:47:00,77.1,66.1,29.91,SW,221,0.0,0.0,69,0.00,,,0.00,0,Wunderground v.1.15,2013-09-01 06:47:00,
2013-08-31 23:53:00,77.0,66.0,29.91,SW,221,0.0,0.0,69,0.00,,,0.00,0,Wunderground v.1.15,2013-09-01 06:53:00,
2013-08-31 23:58:00,76.8,66.3,29.91,SW,221,0.0,2.0,70,0.00,,,0.00,0,Wunderground v.1.15,2013-09-01 06:58:00,